TimeEDT,TemperatureF,Dew PointF,Humidity,Sea Level PressureIn,VisibilityMPH,Wind Direction,Wind SpeedMPH,Gust SpeedMPH,PrecipitationIn,Events,Conditions,WindDirDegrees,DateUTC
12:53 AM,50.0,39.9,68,29.79,10.0,WNW,5.8,-,N/A,,Overcast,290,2013-11-02 04:53:00
1:53 AM,46.9,39.9,77,29.79,10.0,West,5.8,-,N/A,,Clear,280,2013-11-02 05:53:00
2:53 AM,45.0,39.0,80,29.81,10.0,WNW,6.9,-,N/A,,Clear,290,2013-11-02 06:53:00
3:53 AM,43.0,37.9,82,29.81,10.0,West,3.5,-,N/A,,Clear,260,2013-11-02 07:53:00
4:53 AM,39.9,37.0,89,29.82,10.0,Calm,Calm,-,N/A,,Partly Cloudy,0,2013-11-02 08:53:00
5:53 AM,37.9,35.1,89,29.82,10.0,Calm,Calm,-,N/A,,Clear,0,2013-11-02 09:53:00
6:53 AM,37.0,34.0,89,29.83,9.0,Calm,Calm,-,N/A,,Clear,0,2013-11-02 10:53:00
7:53 AM,37.0,35.1,93,29.85,8.0,Calm,Calm,-,N/A,,Clear,0,2013-11-02 11:53:00
8:53 AM,39.9,37.9,93,29.87,5.0,Calm,Calm,-,N/A,,Clear,0,2013-11-02 12:53:00
9:53 AM,44.1,41.0,89,29.89,10.0,West,6.9,-,N/A,,Partly Cloudy,280,2013-11-02 13:53:00
10:53 AM,48.0,39.9,74,29.91,10.0,Variable,5.8,-,N/A,,Clear,0,2013-11-02 14:53:00
11:53 AM,52.0,39.0,61,29.92,10.0,NW,6.9,-,N/A,,Clear,320,2013-11-02 15:53:00
12:53 PM,54.0,37.9,55,29.94,10.0,WNW,6.9,-,N/A,,Scattered Clouds,300,2013-11-02 16:53:00
1:53 PM,54.0,37.0,53,29.94,10.0,WNW,8.1,-,N/A,,Mostly Cloudy,300,2013-11-02 17:53:00
2:53 PM,54.0,35.1,49,29.94,10.0,West,8.1,-,N/A,,Mostly Cloudy,280,2013-11-02 18:53:00
3:53 PM,53.1,34.0,48,29.96,10.0,WNW,10.4,20.7,N/A,,Overcast,300,2013-11-02 19:53:00
4:53 PM,52.0,35.1,53,29.99,10.0,NW,10.4,-,N/A,,Overcast,320,2013-11-02 20:53:00
5:53 PM,52.0,36.0,54,30.01,10.0,WNW,8.1,-,N/A,,Overcast,300,2013-11-02 21:53:00
6:53 PM,48.9,36.0,61,30.04,10.0,NW,6.9,-,N/A,,Scattered Clouds,310,2013-11-02 22:53:00
7:53 PM,46.9,33.1,59,30.08,10.0,NW,9.2,17.3,N/A,,Overcast,320,2013-11-02 23:53:00
8:53 PM,44.1,30.9,60,30.10,10.0,Variable,5.8,-,N/A,,Clear,0,2013-11-03 00:53:00
9:53 PM,42.1,32.0,67,30.12,10.0,WNW,4.6,-,N/A,,Clear,290,2013-11-03 01:53:00
10:53 PM,42.1,33.1,70,30.15,10.0,Calm,Calm,-,N/A,,Mostly Cloudy,0,2013-11-03 02:53:00
11:53 PM,37.0,32.0,82,30.15,10.0,Calm,Calm,-,N/A,,Clear,0,2013-11-03 03:53:00